PDT,Max TemperatureF,Mean TemperatureF,Min TemperatureF,Max Dew PointF,MeanDew PointF,Min DewpointF,Max Humidity, Mean Humidity, Min Humidity, Max Sea Level PressureIn, Mean Sea Level PressureIn, Min Sea Level PressureIn, Max VisibilityMiles, Mean VisibilityMiles, Min VisibilityMiles, Max Wind SpeedMPH, Mean Wind SpeedMPH, Max Gust SpeedMPH,PrecipitationIn, CloudCover, Events, WindDirDegrees
2013-3-1,63,48,32,35,32,30,89,60,30,30.48,30.40,30.30,10,10,10,15,4,21,0.00,0,,131
2013-3-2,57,46,34,35,32,25,89,60,30,30.29,30.17,30.08,10,10,10,18,3,29,0.00,4,,278
2013-3-3,46,33,19,32,16,0,92,54,16,30.23,30.18,30.09,10,10,10,14,5,25,0.00,1,,359
2013-3-4,54,32,10,19,14,8,88,55,21,30.26,30.12,29.96,10,10,10,16,4,21,0.00,0,,151
2013-3-5,43,33,23,30,23,16,89,68,46,29.96,29.83,29.68,10,10,10,12,5,15,T,7,Rain,305
2013-3-6,45,36,27,36,29,21,100,75,49,29.96,29.64,29.49,10,6,0,23,6,30,0.02,6,Fog-Rain-Snow,278
2013-3-7,48,34,19,28,23,16,84,59,34,30.06,30.00,29.94,10,10,5,13,5,22,0.02,3,,153
2013-3-8,50,35,20,31,26,17,92,67,42,30.21,30.04,29.97,10,8,0,17,4,22,0.02,6,Fog-Rain-Snow,253
2013-3-9,56,35,13,25,16,11,92,54,16,30.48,30.39,30.22,10,10,10,13,4,18,0.00,0,,138
2013-3-10,61,40,18,37,25,13,84,51,17,30.50,30.41,30.35,10,10,10,21,6,26,0.00,5,,285
2013-3-11,57,45,32,39,35,30,92,72,51,30.36,30.30,30.24,10,10,10,15,5,20,T,4,,276
2013-3-12,63,48,32,37,31,25,96,63,29,30.24,30.17,30.11,10,10,10,9,3,15,0.00,0,,66
2013-3-13,69,52,35,35,30,24,76,50,23,30.22,30.16,30.11,10,10,10,8,2,13,0.00,0,,125
2013-3-14,69,51,33,31,27,11,70,41,12,30.18,30.09,30.03,10,10,10,17,7,22,0.00,1,,146
2013-3-15,62,46,30,36,30,25,82,56,30,30.22,30.18,30.13,10,10,6,17,5,22,0.00,0,,50
2013-3-16,54,39,24,32,28,23,92,64,36,30.14,30.04,29.95,10,10,3,29,9,35,0.02,3,Rain-Snow,291
2013-3-17,43,32,21,26,19,16,75,56,36,30.21,30.15,30.02,10,10,10,31,14,38,0.00,1,,299
2013-3-18,53,35,17,22,16,6,84,50,16,30.25,30.19,30.14,10,10,10,13,4,20,0.00,0,,226
2013-3-19,49,37,25,40,24,16,92,64,36,30.17,30.02,29.76,10,10,9,14,3,18,0.03,7,Rain,338
2013-3-20,52,41,30,39,33,22,78,65,52,30.09,29.77,29.60,10,9,2,33,14,41,0.09,5,Rain,244
2013-3-21,44,36,27,22,19,15,69,53,36,30.21,30.17,30.11,10,10,10,29,13,37,T,4,,277
2013-3-22,41,31,21,23,18,11,88,59,30,30.34,30.24,30.15,10,9,2,24,10,32,T,5,Snow,286
2013-3-23,46,33,19,21,16,11,84,55,25,30.34,30.28,30.22,10,10,10,9,3,20,0.00,2,,148
2013-3-24,48,33,17,24,19,13,77,56,34,30.27,30.20,30.11,10,10,10,15,5,17,0.00,5,,329
2013-3-25,52,41,29,29,25,23,69,53,36,30.10,30.01,29.92,10,10,10,15,6,17,T,5,Rain,317
2013-3-26,51,44,37,37,33,29,82,66,50,29.99,29.95,29.93,10,10,9,13,5,16,T,8,Rain,309
2013-3-27,59,44,28,44,35,27,100,68,36,29.99,29.93,29.88,10,8,1,21,4,25,0.02,5,Rain,250
2013-3-28,58,46,34,44,39,35,100,76,51,30.12,30.04,29.99,10,10,6,15,4,20,0.11,7,Rain,317
2013-3-29,64,50,35,43,40,34,100,70,39,30.22,30.17,30.12,10,8,0,12,3,15,0.00,3,Fog,220
2013-3-30,71,51,30,41,38,31,92,61,29,30.23,30.15,30.04,10,10,10,15,5,20,0.00,0,,326
2013-3-31,69,50,30,39,35,29,92,61,30,30.05,29.98,29.89,10,10,7,20,7,25,0.00,0,,318